Year,Month,Day,Hour,Minute,Value (Times are PST for temperature in C)
2008,06,16,00,00,11.50
2008,06,16,00,01,11.40
2008,06,16,00,02,11.40
2008,06,16,00,03,11.40
2008,06,16,00,04,11.30
2008,06,16,00,05,11.30
2008,06,16,00,06,11.30
2008,06,16,00,07,11.30
2008,06,16,00,08,11.30
2008,06,16,00,09,11.30
2008,06,16,00,10,11.30
2008,06,16,00,11,11.30
2008,06,16,00,12,11.30
2008,06,16,00,13,11.30
2008,06,16,00,14,11.30
2008,06,16,00,15,11.30
2008,06,16,00,16,11.30
2008,06,16,00,17,11.30
2008,06,16,00,18,11.30
2008,06,16,00,19,11.30
2008,06,16,00,20,11.30
2008,06,16,00,21,11.30
2008,06,16,00,22,11.30
2008,06,16,00,23,11.20
2008,06,16,00,24,11.20
2008,06,16,00,25,11.20
2008,06,16,00,26,11.20
2008,06,16,00,27,11.20
2008,06,16,00,28,11.20
2008,06,16,00,29,11.20
2008,06,16,00,30,11.20
2008,06,16,00,31,11.20
2008,06,16,00,32,11.10
2008,06,16,00,33,11.10
2008,06,16,00,34,11.10
2008,06,16,00,35,11.10
2008,06,16,00,36,11.10
2008,06,16,00,37,11.10
2008,06,16,00,38,11.10
2008,06,16,00,39,11.10
2008,06,16,00,40,11.20
2008,06,16,00,41,11.20
2008,06,16,00,42,11.20
2008,06,16,00,43,11.20
2008,06,16,00,44,11.10
2008,06,16,00,45,11.10
2008,06,16,00,46,11.00
2008,06,16,00,47,11.00
2008,06,16,00,48,10.90
2008,06,16,00,49,10.90
2008,06,16,00,50,10.90
2008,06,16,00,51,10.90
2008,06,16,00,52,10.90
2008,06,16,00,53,10.90
2008,06,16,00,54,10.80
2008,06,16,00,55,10.80
2008,06,16,00,56,10.80
2008,06,16,00,57,10.80
2008,06,16,00,58,10.80
2008,06,16,00,59,10.70
2008,06,16,01,00,10.70
2008,06,16,01,01,10.70
2008,06,16,01,02,10.70
2008,06,16,01,03,10.70
2008,06,16,01,04,10.70
2008,06,16,01,05,10.60
2008,06,16,01,06,10.60
2008,06,16,01,07,10.60
2008,06,16,01,08,10.60
2008,06,16,01,09,10.60
2008,06,16,01,10,10.60
2008,06,16,01,11,10.60
2008,06,16,01,12,10.60
2008,06,16,01,13,10.70
2008,06,16,01,14,10.70
2008,06,16,01,15,10.70
2008,06,16,01,16,10.70
2008,06,16,01,17,10.70
2008,06,16,01,18,10.70
2008,06,16,01,19,10.70
2008,06,16,01,20,10.70
2008,06,16,01,21,10.70
2008,06,16,01,22,10.70
2008,06,16,01,23,10.70
2008,06,16,01,24,10.70
2008,06,16,01,25,10.70
2008,06,16,01,26,10.70
2008,06,16,01,27,10.70
2008,06,16,01,28,10.70
2008,06,16,01,29,10.70
2008,06,16,01,30,10.70
2008,06,16,01,31,10.70
2008,06,16,01,32,10.80
2008,06,16,01,33,10.80
2008,06,16,01,34,10.80
2008,06,16,01,35,10.90
2008,06,16,01,36,10.90
2008,06,16,01,37,11.00
2008,06,16,01,38,11.00
2008,06,16,01,39,11.00
2008,06,16,01,40,11.00
2008,06,16,01,41,11.10
2008,06,16,01,42,11.10
2008,06,16,01,43,11.10
2008,06,16,01,44,11.10
2008,06,16,01,45,11.10
2008,06,16,01,46,11.10
2008,06,16,01,47,11.10
2008,06,16,01,48,11.10
2008,06,16,01,49,11.10
2008,06,16,01,50,11.10
2008,06,16,01,51,11.10
2008,06,16,01,52,11.10
2008,06,16,01,53,11.10
2008,06,16,01,54,11.10
2008,06,16,01,55,11.10
2008,06,16,01,56,11.10
2008,06,16,01,57,11.00
2008,06,16,01,58,11.00
2008,06,16,01,59,11.00
2008,06,16,02,00,11.00
2008,06,16,02,01,10.90
2008,06,16,02,02,10.90
2008,06,16,02,03,10.90
2008,06,16,02,04,10.90
2008,06,16,02,05,10.80
2008,06,16,02,06,10.80
2008,06,16,02,07,10.80
2008,06,16,02,08,10.70
2008,06,16,02,09,10.70
2008,06,16,02,10,10.70
2008,06,16,02,11,10.60
2008,06,16,02,12,10.60
2008,06,16,02,13,10.60
2008,06,16,02,14,10.60
2008,06,16,02,15,10.60
2008,06,16,02,16,10.60
2008,06,16,02,17,10.60
2008,06,16,02,18,10.60
2008,06,16,02,19,10.50
2008,06,16,02,20,10.50
2008,06,16,02,21,10.50
2008,06,16,02,22,10.50
2008,06,16,02,23,10.50
2008,06,16,02,24,10.50
2008,06,16,02,25,10.40
2008,06,16,02,26,10.50
2008,06,16,02,27,10.50
2008,06,16,02,28,10.50
2008,06,16,02,29,10.60
2008,06,16,02,30,10.60
2008,06,16,02,31,10.60
2008,06,16,02,32,10.60
2008,06,16,02,33,10.60
2008,06,16,02,34,10.60
2008,06,16,02,35,10.50
2008,06,16,02,36,10.50
2008,06,16,02,37,10.50
2008,06,16,02,38,10.50
2008,06,16,02,39,10.40
2008,06,16,02,40,10.40
2008,06,16,02,41,10.40
2008,06,16,02,42,10.40
2008,06,16,02,43,10.40
2008,06,16,02,44,10.40
2008,06,16,02,45,10.40
2008,06,16,02,46,10.40
2008,06,16,02,47,10.40
2008,06,16,02,48,10.40
2008,06,16,02,49,10.40
2008,06,16,02,50,10.30
2008,06,16,02,51,10.30
2008,06,16,02,52,10.30
2008,06,16,02,53,10.20
2008,06,16,02,54,10.20
2008,06,16,02,55,10.10
2008,06,16,02,56,10.10
2008,06,16,02,57,10.10
2008,06,16,02,58,10.00
2008,06,16,02,59,10.00
2008,06,16,03,00,9.90
2008,06,16,03,01,9.90
2008,06,16,03,02,9.90
2008,06,16,03,03,9.80
2008,06,16,03,04,9.80
2008,06,16,03,05,9.80
2008,06,16,03,06,9.80
2008,06,16,03,07,9.80
2008,06,16,03,08,9.80
2008,06,16,03,09,9.70
2008,06,16,03,10,9.70
2008,06,16,03,11,9.70
2008,06,16,03,12,9.70
2008,06,16,03,13,9.70
2008,06,16,03,14,9.70
2008,06,16,03,15,9.70
2008,06,16,03,16,9.70
2008,06,16,03,17,9.70
2008,06,16,03,18,9.70
2008,06,16,03,19,9.60
2008,06,16,03,20,9.60
2008,06,16,03,21,9.70
2008,06,16,03,22,9.70
2008,06,16,03,23,9.70
2008,06,16,03,24,9.70
2008,06,16,03,25,9.70
2008,06,16,03,26,9.60
2008,06,16,03,27,9.60
2008,06,16,03,28,9.60
2008,06,16,03,29,9.60
2008,06,16,03,30,9.60
2008,06,16,03,31,9.60
2008,06,16,03,32,9.60
2008,06,16,03,33,9.60
2008,06,16,03,34,9.60
2008,06,16,03,35,9.60
2008,06,16,03,36,9.60
2008,06,16,03,37,9.60
2008,06,16,03,38,9.60
2008,06,16,03,39,9.60
2008,06,16,03,40,9.60
2008,06,16,03,41,9.60
2008,06,16,03,42,9.50
2008,06,16,03,43,9.50
2008,06,16,03,44,9.50
2008,06,16,03,45,9.50
2008,06,16,03,46,9.40
2008,06,16,03,47,9.40
2008,06,16,03,48,9.40
2008,06,16,03,49,9.40
2008,06,16,03,50,9.40
2008,06,16,03,51,9.40
2008,06,16,03,52,9.30
2008,06,16,03,53,9.30
2008,06,16,03,54,9.30
2008,06,16,03,55,9.30
2008,06,16,03,56,9.30
2008,06,16,03,57,9.30
2008,06,16,03,58,9.20
2008,06,16,03,59,9.20
2008,06,16,04,00,9.20
2008,06,16,04,01,9.20
2008,06,16,04,02,9.20
2008,06,16,04,03,9.10
2008,06,16,04,04,9.10
2008,06,16,04,05,9.10
2008,06,16,04,06,9.00
2008,06,16,04,07,9.00
2008,06,16,04,08,9.00
2008,06,16,04,09,8.90
2008,06,16,04,10,8.90
2008,06,16,04,11,8.90
2008,06,16,04,12,8.90
2008,06,16,04,13,8.90
2008,06,16,04,14,8.90
2008,06,16,04,15,8.90
2008,06,16,04,16,8.80
2008,06,16,04,17,8.80
2008,06,16,04,18,8.80
2008,06,16,04,19,8.80
2008,06,16,04,20,8.80
2008,06,16,04,21,8.80
2008,06,16,04,22,8.80
2008,06,16,04,23,8.80
2008,06,16,04,24,8.70
2008,06,16,04,25,8.70
2008,06,16,04,26,8.70
2008,06,16,04,27,8.70
2008,06,16,04,28,8.70
2008,06,16,04,29,8.60
2008,06,16,04,30,8.60
2008,06,16,04,31,8.60
2008,06,16,04,32,8.60
2008,06,16,04,33,8.60
2008,06,16,04,34,8.50
2008,06,16,04,35,8.50
2008,06,16,04,36,8.40
2008,06,16,04,37,8.40
2008,06,16,04,38,8.40
2008,06,16,04,39,8.30
2008,06,16,04,40,8.30
2008,06,16,04,41,8.30
2008,06,16,04,42,8.20
2008,06,16,04,43,8.20
2008,06,16,04,44,8.20
2008,06,16,04,45,8.20
2008,06,16,04,46,8.20
2008,06,16,04,47,8.10
2008,06,16,04,48,8.10
2008,06,16,04,49,8.10
2008,06,16,04,50,8.10
2008,06,16,04,51,8.10
2008,06,16,04,52,8.10
2008,06,16,04,53,8.10
2008,06,16,04,54,8.10
2008,06,16,04,55,8.10
2008,06,16,04,56,8.00
2008,06,16,04,57,8.00
2008,06,16,04,58,8.00
2008,06,16,04,59,8.00
2008,06,16,05,00,7.90
2008,06,16,05,01,7.90
2008,06,16,05,02,7.90
2008,06,16,05,03,7.90
2008,06,16,05,04,7.90
2008,06,16,05,05,7.90
2008,06,16,05,06,7.90
2008,06,16,05,07,7.90
2008,06,16,05,08,7.90
2008,06,16,05,09,7.80
2008,06,16,05,10,7.80
2008,06,16,05,11,7.80
2008,06,16,05,12,7.80
2008,06,16,05,13,7.80
2008,06,16,05,14,7.80
2008,06,16,05,15,7.80
2008,06,16,05,16,7.80
2008,06,16,05,17,7.80
2008,06,16,05,18,7.80
2008,06,16,05,19,7.80
2008,06,16,05,20,7.80
2008,06,16,05,21,7.70
2008,06,16,05,22,7.70
2008,06,16,05,23,7.70
2008,06,16,05,24,7.70
2008,06,16,05,25,7.70
2008,06,16,05,26,7.70
2008,06,16,05,27,7.70
2008,06,16,05,28,7.70
2008,06,16,05,29,7.70
2008,06,16,05,30,7.70
2008,06,16,05,31,7.70
2008,06,16,05,32,7.70
2008,06,16,05,33,7.70
2008,06,16,05,34,7.70
2008,06,16,05,35,7.70
2008,06,16,05,36,7.70
2008,06,16,05,37,7.70
2008,06,16,05,38,7.70
2008,06,16,05,39,7.70
2008,06,16,05,40,7.70
2008,06,16,05,41,7.70
2008,06,16,05,42,7.70
2008,06,16,05,43,7.70
2008,06,16,05,44,7.70
2008,06,16,05,45,7.70
2008,06,16,05,46,7.70
2008,06,16,05,47,7.70
2008,06,16,05,48,7.80
2008,06,16,05,49,7.80
2008,06,16,05,50,7.80
2008,06,16,05,51,7.80
2008,06,16,05,52,7.80
2008,06,16,05,53,7.80
2008,06,16,05,54,7.80
2008,06,16,05,55,7.80
2008,06,16,05,56,7.90
2008,06,16,05,57,7.90
2008,06,16,05,58,7.90
2008,06,16,05,59,7.90
2008,06,16,06,00,8.00
2008,06,16,06,01,8.00
2008,06,16,06,02,8.10
2008,06,16,06,03,8.10
2008,06,16,06,04,8.10
2008,06,16,06,05,8.20
2008,06,16,06,06,8.20
2008,06,16,06,07,8.30
2008,06,16,06,08,8.30
2008,06,16,06,09,8.40
2008,06,16,06,10,8.40
2008,06,16,06,11,8.50
2008,06,16,06,12,8.50
2008,06,16,06,13,8.60
2008,06,16,06,14,8.60
2008,06,16,06,15,8.70
2008,06,16,06,16,8.70
2008,06,16,06,17,8.80
2008,06,16,06,18,8.80
2008,06,16,06,19,8.90
2008,06,16,06,20,8.90
2008,06,16,06,21,9.00
2008,06,16,06,22,9.00
2008,06,16,06,23,9.10
2008,06,16,06,24,9.10
2008,06,16,06,25,9.20
2008,06,16,06,26,9.20
2008,06,16,06,27,9.30
2008,06,16,06,28,9.30
2008,06,16,06,29,9.40
2008,06,16,06,30,9.50
2008,06,16,06,31,9.60
2008,06,16,06,32,9.60
2008,06,16,06,33,9.70
2008,06,16,06,34,9.80
2008,06,16,06,35,9.80
2008,06,16,06,36,9.90
2008,06,16,06,37,9.90
2008,06,16,06,38,10.00
2008,06,16,06,39,10.00
2008,06,16,06,40,10.10
2008,06,16,06,41,10.10
2008,06,16,06,42,10.20
2008,06,16,06,43,10.20
2008,06,16,06,44,10.30
2008,06,16,06,45,10.40
2008,06,16,06,46,10.40
2008,06,16,06,47,10.50
2008,06,16,06,48,10.50
2008,06,16,06,49,10.60
2008,06,16,06,50,10.70
2008,06,16,06,51,10.70
2008,06,16,06,52,10.70
2008,06,16,06,53,10.80
2008,06,16,06,54,10.80
2008,06,16,06,55,10.80
2008,06,16,06,56,10.80
2008,06,16,06,57,10.90
2008,06,16,06,58,10.90
2008,06,16,06,59,11.00
2008,06,16,07,00,11.10
2008,06,16,07,01,11.10
2008,06,16,07,02,11.20
2008,06,16,07,03,11.20
2008,06,16,07,04,11.20
2008,06,16,07,05,11.30
2008,06,16,07,06,11.30
2008,06,16,07,07,11.40
2008,06,16,07,08,11.40
2008,06,16,07,09,11.50
2008,06,16,07,10,11.60
2008,06,16,07,11,11.60
2008,06,16,07,12,11.70
2008,06,16,07,13,11.70
2008,06,16,07,14,11.80
2008,06,16,07,15,11.80
2008,06,16,07,16,11.90
2008,06,16,07,17,12.00
2008,06,16,07,18,12.00
2008,06,16,07,19,12.10
2008,06,16,07,20,12.10
2008,06,16,07,21,12.10
2008,06,16,07,22,12.20
2008,06,16,07,23,12.20
2008,06,16,07,24,12.30
2008,06,16,07,25,12.40
2008,06,16,07,26,12.50
2008,06,16,07,27,12.60
2008,06,16,07,28,12.60
2008,06,16,07,29,12.60
2008,06,16,07,30,12.60
2008,06,16,07,31,12.60
2008,06,16,07,32,12.70
2008,06,16,07,33,12.70
2008,06,16,07,34,12.70
2008,06,16,07,35,12.70
2008,06,16,07,36,12.70
2008,06,16,07,37,12.70
2008,06,16,07,38,12.70
2008,06,16,07,39,12.80
2008,06,16,07,40,12.80
2008,06,16,07,41,12.90
2008,06,16,07,42,12.90
2008,06,16,07,43,12.90
2008,06,16,07,44,12.90
2008,06,16,07,45,13.00
2008,06,16,07,46,13.00
2008,06,16,07,47,13.10
2008,06,16,07,48,13.10
2008,06,16,07,49,13.10
2008,06,16,07,50,13.20
2008,06,16,07,51,13.20
2008,06,16,07,52,13.20
2008,06,16,07,53,13.30
2008,06,16,07,54,13.30
2008,06,16,07,55,13.30
2008,06,16,07,56,13.40
2008,06,16,07,57,13.40
2008,06,16,07,58,13.50
2008,06,16,07,59,13.60
2008,06,16,08,00,13.60
2008,06,16,08,01,13.70
2008,06,16,08,02,13.70
2008,06,16,08,03,13.80
2008,06,16,08,04,13.80
2008,06,16,08,05,13.80
2008,06,16,08,06,13.90
2008,06,16,08,07,13.90
2008,06,16,08,08,14.00
2008,06,16,08,09,14.10
2008,06,16,08,10,14.10
2008,06,16,08,11,14.20
2008,06,16,08,12,14.20
2008,06,16,08,13,14.30
2008,06,16,08,14,14.40
2008,06,16,08,15,14.50
2008,06,16,08,16,14.60
2008,06,16,08,17,14.60
2008,06,16,08,18,14.70
2008,06,16,08,19,14.80
2008,06,16,08,20,15.00
2008,06,16,08,21,15.00
2008,06,16,08,22,15.00
2008,06,16,08,23,15.00
2008,06,16,08,24,15.10
2008,06,16,08,25,15.20
2008,06,16,08,26,15.30
2008,06,16,08,27,15.40
2008,06,16,08,28,15.40
2008,06,16,08,29,15.50
2008,06,16,08,30,15.50
2008,06,16,08,31,15.60
2008,06,16,08,32,15.60
2008,06,16,08,33,15.70
2008,06,16,08,34,15.70
2008,06,16,08,35,15.80
2008,06,16,08,36,15.80
2008,06,16,08,37,15.80
2008,06,16,08,38,15.80
2008,06,16,08,39,15.80
2008,06,16,08,40,15.90
2008,06,16,08,41,15.90
2008,06,16,08,42,16.00
2008,06,16,08,43,16.00
2008,06,16,08,44,16.10
2008,06,16,08,45,16.10
2008,06,16,08,46,16.10
2008,06,16,08,47,16.10
2008,06,16,08,48,16.20
2008,06,16,08,49,16.20
2008,06,16,08,50,16.30
2008,06,16,08,51,16.40
2008,06,16,08,52,16.40
2008,06,16,08,53,16.40
2008,06,16,08,54,16.40
2008,06,16,08,55,16.40
2008,06,16,08,56,16.40
2008,06,16,08,57,16.20
2008,06,16,08,58,16.20
2008,06,16,08,59,16.20
2008,06,16,09,00,16.20
2008,06,16,09,01,16.20
2008,06,16,09,02,16.20
2008,06,16,09,03,16.20
2008,06,16,09,04,16.30
2008,06,16,09,05,16.30
2008,06,16,09,06,16.30
2008,06,16,09,07,16.30
2008,06,16,09,08,16.40
2008,06,16,09,09,16.40
2008,06,16,09,10,16.50
2008,06,16,09,11,16.60
2008,06,16,09,12,16.70
2008,06,16,09,13,16.70
2008,06,16,09,14,16.70
2008,06,16,09,15,16.70
2008,06,16,09,16,16.70
2008,06,16,09,17,16.70
2008,06,16,09,18,16.70
2008,06,16,09,19,16.80
2008,06,16,09,20,16.80
2008,06,16,09,21,16.90
2008,06,16,09,22,17.00
2008,06,16,09,23,17.00
2008,06,16,09,24,17.10
2008,06,16,09,25,17.20
2008,06,16,09,26,17.20
2008,06,16,09,27,17.30
2008,06,16,09,28,17.30
2008,06,16,09,29,17.40
2008,06,16,09,30,17.50
2008,06,16,09,31,17.50
2008,06,16,09,32,17.60
2008,06,16,09,33,17.60
2008,06,16,09,34,17.60
2008,06,16,09,35,17.60
2008,06,16,09,36,17.70
2008,06,16,09,37,17.70
2008,06,16,09,38,17.80
2008,06,16,09,39,17.90
2008,06,16,09,40,18.00
2008,06,16,09,41,18.10
2008,06,16,09,42,18.10
2008,06,16,09,43,18.20
2008,06,16,09,44,18.20
2008,06,16,09,45,18.30
2008,06,16,09,46,18.30
2008,06,16,09,47,18.30
2008,06,16,09,48,18.30
2008,06,16,09,49,18.30
2008,06,16,09,50,18.30
2008,06,16,09,51,18.30
2008,06,16,09,52,18.20
2008,06,16,09,53,18.20
2008,06,16,09,54,18.20
2008,06,16,09,55,18.20
2008,06,16,09,56,18.20
2008,06,16,09,57,18.20
2008,06,16,09,58,18.30
2008,06,16,09,59,18.30
2008,06,16,10,00,18.30
2008,06,16,10,01,18.30
2008,06,16,10,02,18.30
2008,06,16,10,03,18.30
2008,06,16,10,04,18.40
2008,06,16,10,05,18.50
2008,06,16,10,06,18.60
2008,06,16,10,07,18.70
2008,06,16,10,08,18.70
2008,06,16,10,09,18.80
2008,06,16,10,10,18.80
2008,06,16,10,11,18.80
2008,06,16,10,12,18.80
2008,06,16,10,13,18.80
2008,06,16,10,14,18.80
2008,06,16,10,15,18.80
2008,06,16,10,16,18.80
2008,06,16,10,17,18.80
2008,06,16,10,18,18.80
2008,06,16,10,19,18.70
2008,06,16,10,20,18.60
2008,06,16,10,21,18.50
2008,06,16,10,22,18.40
2008,06,16,10,23,18.50
2008,06,16,10,24,18.60
2008,06,16,10,25,18.80
2008,06,16,10,26,18.80
2008,06,16,10,27,18.90
2008,06,16,10,28,18.90
2008,06,16,10,29,18.90
2008,06,16,10,30,19.00
2008,06,16,10,31,19.00
2008,06,16,10,32,19.00
2008,06,16,10,33,19.00
2008,06,16,10,34,19.10
2008,06,16,10,35,19.00
2008,06,16,10,36,19.00
2008,06,16,10,37,19.00
2008,06,16,10,38,19.00
2008,06,16,10,39,19.10
2008,06,16,10,40,19.00
2008,06,16,10,41,19.00
2008,06,16,10,42,19.10
2008,06,16,10,43,19.10
2008,06,16,10,44,19.00
2008,06,16,10,45,19.00
2008,06,16,10,46,18.90
2008,06,16,10,47,18.80
2008,06,16,10,48,18.70
2008,06,16,10,49,18.70
2008,06,16,10,50,18.80
2008,06,16,10,51,18.70
2008,06,16,10,52,18.60
2008,06,16,10,53,18.50
2008,06,16,10,54,18.50
2008,06,16,10,55,18.50
2008,06,16,10,56,18.50
2008,06,16,10,57,18.60
2008,06,16,10,58,18.60
2008,06,16,10,59,18.80
2008,06,16,11,00,18.80
2008,06,16,11,01,18.80
2008,06,16,11,02,18.90
2008,06,16,11,03,19.10
2008,06,16,11,04,19.10
2008,06,16,11,05,19.10
2008,06,16,11,06,19.20
2008,06,16,11,07,19.10
2008,06,16,11,08,18.90
2008,06,16,11,09,18.80
2008,06,16,11,10,18.80
2008,06,16,11,11,18.70
2008,06,16,11,12,18.60
2008,06,16,11,13,18.60
2008,06,16,11,14,18.60
2008,06,16,11,15,18.60
2008,06,16,11,16,18.60
2008,06,16,11,17,18.60
2008,06,16,11,18,18.60
2008,06,16,11,19,18.60
2008,06,16,11,20,18.60
2008,06,16,11,21,18.50
2008,06,16,11,22,18.40
2008,06,16,11,23,18.50
2008,06,16,11,24,18.50
2008,06,16,11,25,18.50
2008,06,16,11,26,18.60
2008,06,16,11,27,18.80
2008,06,16,11,28,18.90
2008,06,16,11,29,18.90
2008,06,16,11,30,18.90
2008,06,16,11,31,18.90
2008,06,16,11,32,18.80
2008,06,16,11,33,18.80
2008,06,16,11,34,19.00
2008,06,16,11,35,19.10
2008,06,16,11,36,19.20
2008,06,16,11,37,19.30
2008,06,16,11,38,19.30
2008,06,16,11,39,19.20
2008,06,16,11,40,19.10
2008,06,16,11,41,19.00
2008,06,16,11,42,19.00
2008,06,16,11,43,19.10
2008,06,16,11,44,19.10
2008,06,16,11,45,19.00
2008,06,16,11,46,18.90
2008,06,16,11,47,18.90
2008,06,16,11,48,19.00
2008,06,16,11,49,19.00
2008,06,16,11,50,19.00
2008,06,16,11,51,18.90
2008,06,16,11,52,18.90
2008,06,16,11,53,18.90
2008,06,16,11,54,19.00
2008,06,16,11,55,19.00
2008,06,16,11,56,18.90
2008,06,16,11,57,18.90
2008,06,16,11,58,18.90
2008,06,16,11,59,18.80
2008,06,16,12,00,18.80
2008,06,16,12,01,18.70
2008,06,16,12,02,18.80
2008,06,16,12,03,18.80
2008,06,16,12,04,18.80
2008,06,16,12,05,18.80
2008,06,16,12,06,18.80
2008,06,16,12,07,18.90
2008,06,16,12,08,18.90
2008,06,16,12,09,18.80
2008,06,16,12,10,18.80
2008,06,16,12,11,18.80
2008,06,16,12,12,18.80
2008,06,16,12,13,18.80
2008,06,16,12,14,18.80
2008,06,16,12,15,18.80
2008,06,16,12,16,18.80
2008,06,16,12,17,18.90
2008,06,16,12,18,19.00
2008,06,16,12,19,19.10
2008,06,16,12,20,19.40
2008,06,16,12,21,19.60
2008,06,16,12,22,19.70
2008,06,16,12,23,19.80
2008,06,16,12,24,19.90
2008,06,16,12,25,20.00
2008,06,16,12,26,20.00
2008,06,16,12,27,19.80
2008,06,16,12,28,19.60
2008,06,16,12,29,19.40
2008,06,16,12,30,19.40
2008,06,16,12,31,19.40
2008,06,16,12,32,19.40
2008,06,16,12,33,19.50
2008,06,16,12,34,19.60
2008,06,16,12,35,19.60
2008,06,16,12,36,19.60
2008,06,16,12,37,19.60
2008,06,16,12,38,19.60
2008,06,16,12,39,19.80
2008,06,16,12,40,19.90
2008,06,16,12,41,19.90
2008,06,16,12,42,19.90
2008,06,16,12,43,19.90
2008,06,16,12,44,19.80
2008,06,16,12,45,19.70
2008,06,16,12,46,19.70
2008,06,16,12,47,19.70
2008,06,16,12,48,19.70
2008,06,16,12,49,19.70
2008,06,16,12,50,19.40
2008,06,16,12,51,19.30
2008,06,16,12,52,19.30
2008,06,16,12,53,19.20
2008,06,16,12,54,19.10
2008,06,16,12,55,18.90
2008,06,16,12,56,18.80
2008,06,16,12,57,18.80
2008,06,16,12,58,18.70
2008,06,16,12,59,18.70
2008,06,16,13,00,18.70
2008,06,16,13,01,18.70
2008,06,16,13,02,18.80
2008,06,16,13,03,18.80
2008,06,16,13,04,18.80
2008,06,16,13,05,18.80
2008,06,16,13,06,18.80
2008,06,16,13,07,18.70
2008,06,16,13,08,18.70
2008,06,16,13,09,18.70
2008,06,16,13,10,18.70
2008,06,16,13,11,18.70
2008,06,16,13,12,18.80
2008,06,16,13,13,18.80
2008,06,16,13,14,18.70
2008,06,16,13,15,18.80
2008,06,16,13,16,18.80
2008,06,16,13,17,18.80
2008,06,16,13,18,18.90
2008,06,16,13,19,19.10
2008,06,16,13,20,19.20
2008,06,16,13,21,19.20
2008,06,16,13,22,19.20
2008,06,16,13,23,19.20
2008,06,16,13,24,19.30
2008,06,16,13,25,19.30
2008,06,16,13,26,19.20
2008,06,16,13,27,19.10
2008,06,16,13,28,19.20
2008,06,16,13,29,19.20
2008,06,16,13,30,19.20
2008,06,16,13,31,19.20
2008,06,16,13,32,19.20
2008,06,16,13,33,19.20
2008,06,16,13,34,19.20
2008,06,16,13,35,19.10
2008,06,16,13,36,19.00
2008,06,16,13,37,19.10
2008,06,16,13,38,19.10
2008,06,16,13,39,19.10
2008,06,16,13,40,19.20
2008,06,16,13,41,19.20
2008,06,16,13,42,19.20
2008,06,16,13,43,19.20
2008,06,16,13,44,19.20
2008,06,16,13,45,19.10
2008,06,16,13,46,19.30
2008,06,16,13,47,19.30
2008,06,16,13,48,19.40
2008,06,16,13,49,19.40
2008,06,16,13,50,19.30
2008,06,16,13,51,19.40
2008,06,16,13,52,19.40
2008,06,16,13,53,19.30
2008,06,16,13,54,19.30
2008,06,16,13,55,19.30
2008,06,16,13,56,19.30
2008,06,16,13,57,19.30
2008,06,16,13,58,19.30
2008,06,16,13,59,19.40
2008,06,16,14,00,19.40
2008,06,16,14,01,19.50
2008,06,16,14,02,19.60
2008,06,16,14,03,19.60
2008,06,16,14,04,19.60
2008,06,16,14,05,19.50
2008,06,16,14,06,19.40
2008,06,16,14,07,19.30
2008,06,16,14,08,19.20
2008,06,16,14,09,19.20
2008,06,16,14,10,19.10
2008,06,16,14,11,19.10
2008,06,16,14,12,19.10
2008,06,16,14,13,19.00
2008,06,16,14,14,19.00
2008,06,16,14,15,19.00
2008,06,16,14,16,19.00
2008,06,16,14,17,19.10
2008,06,16,14,18,19.20
2008,06,16,14,19,19.20
2008,06,16,14,20,19.30
2008,06,16,14,21,19.40
2008,06,16,14,22,19.50
2008,06,16,14,23,19.60
2008,06,16,14,24,19.70
2008,06,16,14,25,19.90
2008,06,16,14,26,19.90
2008,06,16,14,27,19.90
2008,06,16,14,28,19.80
2008,06,16,14,29,19.70
2008,06,16,14,30,19.70
2008,06,16,14,31,19.70
2008,06,16,14,32,19.60
2008,06,16,14,33,19.50
2008,06,16,14,34,19.40
2008,06,16,14,35,19.30
2008,06,16,14,36,19.20
2008,06,16,14,37,19.10
2008,06,16,14,38,19.00
2008,06,16,14,39,19.00
2008,06,16,14,40,19.00
2008,06,16,14,41,19.10
2008,06,16,14,42,19.10
2008,06,16,14,43,19.20
2008,06,16,14,44,19.40
2008,06,16,14,45,19.60
2008,06,16,14,46,19.70
2008,06,16,14,47,19.70
2008,06,16,14,48,19.60
2008,06,16,14,49,19.60
2008,06,16,14,50,19.50
2008,06,16,14,51,19.30
2008,06,16,14,52,19.30
2008,06,16,14,53,19.30
2008,06,16,14,54,19.30
2008,06,16,14,55,19.30
2008,06,16,14,56,19.30
2008,06,16,14,57,19.20
2008,06,16,14,58,19.30
2008,06,16,14,59,19.30
2008,06,16,15,00,19.40
2008,06,16,15,01,19.40
2008,06,16,15,02,19.50
2008,06,16,15,03,19.60
2008,06,16,15,04,19.60
2008,06,16,15,05,19.50
2008,06,16,15,06,19.40
2008,06,16,15,07,19.40
2008,06,16,15,08,19.40
2008,06,16,15,09,19.40
2008,06,16,15,10,19.40
2008,06,16,15,11,19.40
2008,06,16,15,12,19.50
2008,06,16,15,13,19.60
2008,06,16,15,14,19.60
2008,06,16,15,15,19.60
2008,06,16,15,16,19.70
2008,06,16,15,17,19.80
2008,06,16,15,18,19.80
2008,06,16,15,19,19.80
2008,06,16,15,20,19.90
2008,06,16,15,21,20.00
2008,06,16,15,22,19.90
2008,06,16,15,23,19.90
2008,06,16,15,24,19.90
2008,06,16,15,25,20.00
2008,06,16,15,26,20.10
2008,06,16,15,27,20.00
2008,06,16,15,28,19.90
2008,06,16,15,29,20.00
2008,06,16,15,30,20.10
2008,06,16,15,31,20.10
2008,06,16,15,32,20.20
2008,06,16,15,33,20.20
2008,06,16,15,34,20.10
2008,06,16,15,35,20.10
2008,06,16,15,36,20.00
2008,06,16,15,37,19.90
2008,06,16,15,38,19.90
2008,06,16,15,39,19.90
2008,06,16,15,40,19.90
2008,06,16,15,41,19.90
2008,06,16,15,42,19.90
2008,06,16,15,43,19.80
2008,06,16,15,44,19.90
2008,06,16,15,45,20.00
2008,06,16,15,46,20.10
2008,06,16,15,47,20.20
2008,06,16,15,48,20.20
2008,06,16,15,49,20.20
2008,06,16,15,50,20.10
2008,06,16,15,51,20.10
2008,06,16,15,52,20.20
2008,06,16,15,53,20.20
2008,06,16,15,54,20.20
2008,06,16,15,55,20.30
2008,06,16,15,56,20.40
2008,06,16,15,57,20.40
2008,06,16,15,58,20.40
2008,06,16,15,59,20.40
2008,06,16,16,00,20.40
2008,06,16,16,01,20.40
2008,06,16,16,02,20.30
2008,06,16,16,03,20.30
2008,06,16,16,04,20.30
2008,06,16,16,05,20.40
2008,06,16,16,06,20.50
2008,06,16,16,07,20.60
2008,06,16,16,08,20.60
2008,06,16,16,09,20.60
2008,06,16,16,10,20.70
2008,06,16,16,11,20.80
2008,06,16,16,12,20.80
2008,06,16,16,13,20.70
2008,06,16,16,14,20.70
2008,06,16,16,15,20.70
2008,06,16,16,16,20.70
2008,06,16,16,17,20.80
2008,06,16,16,18,20.90
2008,06,16,16,19,21.00
2008,06,16,16,20,21.10
2008,06,16,16,21,21.20
2008,06,16,16,22,21.20
2008,06,16,16,23,21.30
2008,06,16,16,24,21.30
2008,06,16,16,25,21.30
2008,06,16,16,26,21.30
2008,06,16,16,27,21.30
2008,06,16,16,28,21.20
2008,06,16,16,29,21.20
2008,06,16,16,30,21.10
2008,06,16,16,31,21.10
2008,06,16,16,32,21.20
2008,06,16,16,33,21.20
2008,06,16,16,34,21.20
2008,06,16,16,35,21.20
2008,06,16,16,36,21.20
2008,06,16,16,37,21.30
2008,06,16,16,38,21.30
2008,06,16,16,39,21.10
2008,06,16,16,40,21.00
2008,06,16,16,41,20.90
2008,06,16,16,42,20.80
2008,06,16,16,43,20.80
2008,06,16,16,44,20.90
2008,06,16,16,45,21.00
2008,06,16,16,46,21.10
2008,06,16,16,47,21.10
2008,06,16,16,48,21.20
2008,06,16,16,49,21.30
2008,06,16,16,50,21.40
2008,06,16,16,51,21.40
2008,06,16,16,52,21.30
2008,06,16,16,53,21.30
2008,06,16,16,54,21.40
2008,06,16,16,55,21.40
2008,06,16,16,56,21.40
2008,06,16,16,57,21.50
2008,06,16,16,58,21.50
2008,06,16,16,59,21.50
2008,06,16,17,00,21.50
2008,06,16,17,01,21.50
2008,06,16,17,02,21.40
2008,06,16,17,03,21.40
2008,06,16,17,04,21.40
2008,06,16,17,05,21.30
2008,06,16,17,06,21.30
2008,06,16,17,07,21.40
2008,06,16,17,08,21.40
2008,06,16,17,09,21.40
2008,06,16,17,10,21.40
2008,06,16,17,11,21.30
2008,06,16,17,12,21.30
2008,06,16,17,13,21.20
2008,06,16,17,14,21.30
2008,06,16,17,15,21.30
2008,06,16,17,16,21.20
2008,06,16,17,17,21.20
2008,06,16,17,18,21.30
2008,06,16,17,19,21.30
2008,06,16,17,20,21.30
2008,06,16,17,21,21.30
2008,06,16,17,22,21.30
2008,06,16,17,23,21.30
2008,06,16,17,24,21.30
2008,06,16,17,25,21.30
2008,06,16,17,26,21.40
2008,06,16,17,27,21.40
2008,06,16,17,28,21.30